Weather History for Shaw AFB, SC

Change the Weather History Date:

Saturday, February 16, 2013

  Actual Average Record
Temperature  
Mean Temperature 38 °F -  
Max Temperature 45 °F 58 °F 75 °F (2001)
Min Temperature 31 °F 36 °F 25 °F (2007)
Degree Days  
Heating Degree Days 27    
Moisture  
Dew Point 31 °F    
Average Humidity 78    
Maximum Humidity 87    
Minimum Humidity 56    
Precipitation  
Precipitation 0.26 in - - ()
Sea Level Pressure  
Sea Level Pressure 29.92 in    
Wind  
Wind Speed 7 mph (NW)    
Max Wind Speed 24 mph    
Max Gust Speed 32 mph    
Visibility 7 miles    
Events Rain , Snow    
Averages and records for this station are not official NWS values.
T = Trace of Precipitation, MM = Missing Value Source: NWS Daily Summary

Daily Weather History Graph

Daily Weather History Graph

Search for Another Location

Airport:

Trip Planner

Search our weather history database for the weather conditions in past years. The results will help you decide how hot, cold, wet, or windy it might be!

Date:

Astronomy

Feb. 16, 2013 Rise Set
Actual Time 7:05 AM EST 6:07 PM EST
Civil Twilight 6:39 AM EST 6:32 PM EST
Nautical Twilight 6:10 AM EST 7:01 PM EST
Astronomical Twilight 5:41 AM EST 7:30 PM EST
Moon 10:37 AM EST No Moon Set
Length of Visible Light 11h 52m
Length of Day
11h 01m
Waxing Crescent, 39% of the Moon is Illuminated
Feb 16
Waxing Crescent
Feb 17
First Quarter
Feb 25
Full
Mar 4
Last Quarter
Mar 11
New

Hourly Weather History & Observations

Time (EST) Temp. Windchill Dew Point Humidity Pressure Visibility Wind Dir Wind Speed Gust Speed Precip Events Conditions
12:28 AM 41.0 °F 39.0 °F 33.8 °F 76% 29.94 in 9.0 mi South 3.5 mph - N/A   Clear
12:38 AM 41.0 °F 39.0 °F 33.8 °F 76% 29.93 in 6.0 mi South 3.5 mph - N/A   Haze
12:53 AM 42.8 °F 39.3 °F 33.8 °F 70% 29.93 in 8.0 mi South 5.8 mph - N/A   Clear
12:58 AM 42.1 °F 39.2 °F 34.3 °F 74% 29.94 in 9.0 mi SSW 4.6 mph - N/A   Clear
1:03 AM 41.0 °F 37.1 °F 33.8 °F 76% 29.93 in 10.0 mi South 5.8 mph - N/A   Clear
1:43 AM 44.6 °F - 32.0 °F 61% 29.93 in 9.0 mi South 2.3 mph - N/A   Clear
1:48 AM 42.8 °F - 32.0 °F 66% 29.93 in 6.0 mi SE 1.2 mph - N/A   Haze
1:53 AM 41.0 °F - 32.0 °F 70% 29.93 in 5.0 mi South 2.3 mph - N/A   Haze
1:58 AM 40.3 °F - 32.5 °F 74% 29.94 in 5.0 mi South 2.3 mph - N/A   Haze
2:03 AM 41.0 °F - 32.0 °F 70% 29.93 in 6.0 mi South 2.3 mph - N/A   Haze
2:08 AM 41.0 °F - 32.0 °F 70% 29.93 in 7.0 mi SSW 2.3 mph - N/A   Clear
2:23 AM 42.8 °F - 32.0 °F 66% 29.93 in 10.0 mi SSW 2.3 mph - N/A   Clear
2:43 AM 41.0 °F - 32.0 °F 70% 29.93 in 9.0 mi Calm Calm - N/A   Clear
2:48 AM 41.0 °F - 32.0 °F 70% 29.93 in 6.0 mi Calm Calm - N/A   Haze
2:58 AM 41.0 °F 39.0 °F 32.0 °F 70% 29.94 in 6.0 mi NNW 3.5 mph - N/A   Haze
3:13 AM 41.0 °F 38.0 °F 32.0 °F 70% 29.93 in 7.0 mi North 4.6 mph - N/A   Clear
3:28 AM 39.2 °F 35.9 °F 32.0 °F 75% 29.92 in 10.0 mi Variable 4.6 mph - N/A   Clear
3:33 AM 39.2 °F 35.9 °F 32.0 °F 75% 29.92 in 8.0 mi North 4.6 mph - N/A   Clear
3:38 AM 39.2 °F 35.0 °F 32.0 °F 75% 29.92 in 6.0 mi North 5.8 mph - N/A   Haze
3:53 AM 39.2 °F 35.0 °F 32.0 °F 75% 29.91 in 7.0 mi North 5.8 mph - N/A   Clear
3:58 AM 38.5 °F 34.1 °F 30.9 °F 74% 29.92 in 7.0 mi NNE 5.8 mph - N/A   Clear
4:03 AM 39.2 °F 35.9 °F 32.0 °F 75% 29.91 in 6.0 mi NNE 4.6 mph - N/A   Haze
4:23 AM 37.4 °F 32.1 °F 32.0 °F 81% 29.90 in 7.0 mi North 6.9 mph - N/A   Clear
4:53 AM 37.4 °F 32.8 °F 30.2 °F 75% 29.90 in 7.0 mi NNE 5.8 mph - N/A   Clear
4:58 AM 37.4 °F 32.8 °F 30.2 °F 75% 29.91 in 6.0 mi NE 5.8 mph - N/A   Haze
5:08 AM 37.4 °F 32.8 °F 30.2 °F 75% 29.90 in 5.0 mi NE 5.8 mph - N/A   Haze
5:18 AM 37.4 °F 32.8 °F 30.2 °F 75% 29.90 in 6.0 mi North 5.8 mph - N/A   Haze
5:23 AM 37.4 °F 32.1 °F 30.2 °F 75% 29.90 in 7.0 mi North 6.9 mph - N/A   Clear
5:38 AM 39.2 °F 33.6 °F 32.0 °F 75% 29.91 in 10.0 mi NNW 8.1 mph - N/A   Clear
5:58 AM 40.8 °F 35.0 °F 31.1 °F 68% 29.92 in 10.0 mi NNW 9.2 mph - N/A   Clear
6:58 AM 39.9 °F 34.5 °F 30.6 °F 69% 29.92 in 10.0 mi NNW 8.1 mph - N/A   Overcast
7:58 AM 40.3 °F 33.4 °F 30.2 °F 67% 29.92 in 10.0 mi North 11.5 mph - N/A   Scattered Clouds
8:58 AM 43.3 °F 37.7 °F 30.6 °F 61% 29.92 in 10.0 mi North 10.4 mph 18.4 mph N/A   Mostly Cloudy
9:58 AM 45.7 °F 39.5 °F 30.7 °F 56% 29.93 in 10.0 mi NW 13.8 mph 19.6 mph N/A   Overcast
10:03 AM 44.6 °F 37.4 °F 32.0 °F 61% 29.92 in 10.0 mi NW 16.1 mph - N/A Rain Light Rain
10:28 AM 39.2 °F 29.8 °F 32.0 °F 75% 29.94 in 9.0 mi NW 18.4 mph - N/A Rain Rain
10:33 AM 39.2 °F 30.8 °F 32.0 °F 75% 29.94 in 9.0 mi NNW 15.0 mph - N/A Rain Light Rain
10:36 AM 39.2 °F 30.8 °F 32.0 °F 75% 29.93 in 9.0 mi NNW 15.0 mph - N/A Rain Light Rain
10:49 AM 37.4 °F 29.3 °F 32.0 °F 81% 29.95 in 3.0 mi NNW 12.7 mph 20.7 mph N/A Rain Heavy Rain
10:58 AM 36.7 °F 28.0 °F 32.0 °F 83% 29.96 in 3.0 mi NW 13.8 mph 24.2 mph 0.05 in Rain Heavy Rain
11:01 AM 35.6 °F 27.5 °F 32.0 °F 87% 29.95 in 2.0 mi NW 11.5 mph 24.2 mph N/A Snow Snow
11:08 AM 35.6 °F 28.0 °F 32.0 °F 87% 29.95 in 5.0 mi NW 10.4 mph 24.2 mph N/A Rain Rain
11:23 AM 35.6 °F 28.6 °F 32.0 °F 87% 29.95 in 2.0 mi NNW 9.2 mph - N/A Snow Light Snow
11:58 AM 36.0 °F 30.3 °F 32.2 °F 86% 29.94 in 2.0 mi North 6.9 mph - 0.07 in Snow Light Snow
12:05 PM 35.6 °F 29.9 °F 32.0 °F 87% 29.93 in 3.0 mi NNW 6.9 mph - N/A Rain , Snow Light Rain
12:25 PM 35.6 °F 29.9 °F 32.0 °F 87% 29.93 in 2.0 mi NNW 6.9 mph - N/A Rain , Snow Light Rain
12:58 PM 35.6 °F 32.8 °F 31.6 °F 85% 29.92 in 5.0 mi NW 3.5 mph - 0.05 in Rain , Snow Light Rain
1:58 PM 37.2 °F 33.6 °F 33.4 °F 86% 29.90 in 5.0 mi West 4.6 mph - 0.02 in Rain Light Rain
2:01 PM 37.4 °F 34.9 °F 32.0 °F 81% 29.88 in 5.0 mi West 3.5 mph - N/A   Overcast
2:06 PM 37.4 °F - 32.0 °F 81% 29.88 in 7.0 mi North 1.2 mph - N/A   Overcast
2:16 PM 37.4 °F 32.1 °F 33.8 °F 87% 29.85 in 5.0 mi ESE 6.9 mph - N/A   Mostly Cloudy
2:36 PM 39.2 °F 37.0 °F 33.8 °F 81% 29.85 in 10.0 mi ESE 3.5 mph - N/A   Mostly Cloudy
2:46 PM 37.4 °F - 33.8 °F 87% 29.85 in 10.0 mi SW 2.3 mph - N/A   Mostly Cloudy
2:58 PM 38.7 °F 35.2 °F 34.2 °F 84% 29.86 in 7.0 mi WSW 4.6 mph - 0.00 in   Overcast
3:13 PM 39.2 °F 34.2 °F 33.8 °F 81% 29.85 in 7.0 mi West 6.9 mph - N/A   Overcast
3:48 PM 41.0 °F 39.0 °F 35.6 °F 81% 29.84 in 10.0 mi Variable 3.5 mph - N/A   Overcast
3:58 PM 40.6 °F 36.0 °F 34.2 °F 78% 29.85 in 10.0 mi WSW 6.9 mph - N/A   Overcast
4:13 PM 41.0 °F 36.4 °F 33.8 °F 76% 29.84 in 10.0 mi West 6.9 mph - N/A   Overcast
4:28 PM 41.0 °F 37.1 °F 33.8 °F 76% 29.84 in 10.0 mi West 5.8 mph - N/A   Overcast
4:43 PM 41.0 °F 36.4 °F 32.0 °F 70% 29.84 in 10.0 mi WSW 6.9 mph - N/A   Overcast
4:58 PM 40.6 °F 36.0 °F 32.7 °F 73% 29.85 in 10.0 mi West 6.9 mph - N/A   Mostly Cloudy
5:17 PM 41.0 °F 37.1 °F 32.0 °F 70% 29.84 in 10.0 mi West 5.8 mph - N/A Rain Light Rain
5:24 PM 41.0 °F 36.4 °F 32.0 °F 70% 29.84 in 10.0 mi SW 6.9 mph - N/A Rain Light Rain
5:41 PM 39.2 °F 32.5 °F 32.0 °F 75% 29.85 in 9.0 mi West 10.4 mph - N/A Rain Light Rain
5:46 PM 39.2 °F 31.6 °F 32.0 °F 75% 29.85 in 9.0 mi WSW 12.7 mph - N/A Rain Light Rain
5:58 PM 38.5 °F 31.6 °F 32.4 °F 79% 29.86 in 3.0 mi WSW 10.4 mph - 0.02 in Rain Light Rain
6:07 PM 37.4 °F 32.1 °F 32.0 °F 81% 29.84 in 10.0 mi WSW 6.9 mph - N/A   Mostly Cloudy
6:21 PM 37.4 °F 29.3 °F 32.0 °F 81% 29.87 in 9.0 mi WNW 12.7 mph 20.7 mph N/A Rain Light Rain
6:26 PM 37.4 °F 32.1 °F 32.0 °F 81% 29.87 in 4.0 mi WNW 6.9 mph 20.7 mph N/A Rain , Snow Light Rain
6:35 PM 35.6 °F 28.6 °F 32.0 °F 87% 29.87 in 7.0 mi West 9.2 mph - N/A Rain , Snow Light Rain
6:39 PM 35.6 °F 28.0 °F 32.0 °F 87% 29.88 in 8.0 mi West 10.4 mph - N/A Rain , Snow Light Rain
6:44 PM 35.6 °F 27.5 °F 32.0 °F 87% 29.87 in 9.0 mi West 11.5 mph - N/A Rain , Snow Light Rain
6:58 PM 37.4 °F 28.2 °F 32.0 °F 81% 29.89 in 4.0 mi West 16.1 mph 21.9 mph 0.04 in Rain , Snow Light Rain
7:38 PM 35.6 °F 23.7 °F 30.2 °F 81% 29.91 in 8.0 mi WNW 24.2 mph 31.1 mph N/A Rain , Snow Light Rain
7:43 PM 33.8 °F 22.8 °F 30.2 °F 87% 29.92 in 2.0 mi WNW 18.4 mph 31.1 mph N/A Snow Light Snow
7:58 PM 32.0 °F 20.1 °F 28.4 °F 87% 29.94 in 3.0 mi NW 19.6 mph 32.2 mph 0.01 in Snow Light Snow
8:08 PM 32.0 °F 20.1 °F 28.4 °F 87% 29.93 in 3.0 mi NW 19.6 mph 26.5 mph N/A Snow Light Snow
8:23 PM 32.0 °F 19.8 °F 28.4 °F 87% 29.94 in 5.0 mi NW 20.7 mph 29.9 mph N/A Snow Light Snow
8:33 PM 32.0 °F 20.5 °F 28.4 °F 87% 29.94 in 4.0 mi NNW 18.4 mph 29.9 mph N/A Snow Light Snow
8:38 PM 32.0 °F 20.5 °F 28.4 °F 87% 29.94 in 4.0 mi NNW 18.4 mph 28.8 mph N/A Snow Light Snow
8:43 PM 32.0 °F 21.6 °F 28.4 °F 87% 29.94 in 5.0 mi NNW 15.0 mph 28.8 mph N/A Snow Light Snow
8:48 PM 32.0 °F 21.2 °F 28.4 °F 87% 29.94 in 8.0 mi North 16.1 mph 24.2 mph N/A Snow Light Snow
8:53 PM 32.0 °F 22.5 °F 28.4 °F 87% 29.95 in 10.0 mi NNW 12.7 mph 24.2 mph N/A Rain Light Rain
8:58 PM 33.4 °F 23.9 °F 28.6 °F 82% 29.97 in 10.0 mi NW 13.8 mph - 0.00 in Rain Light Rain
9:06 PM 32.0 °F 23.0 °F 28.4 °F 87% 29.97 in 10.0 mi NW 11.5 mph - N/A   Mostly Cloudy
9:11 PM 32.0 °F 23.0 °F 28.4 °F 87% 29.97 in 10.0 mi NNW 11.5 mph 19.6 mph N/A   Mostly Cloudy
9:21 PM 32.0 °F 24.2 °F 28.4 °F 87% 29.98 in 10.0 mi NW 9.2 mph 19.6 mph N/A   Overcast
9:31 PM 32.0 °F 24.2 °F 28.4 °F 87% 29.98 in 10.0 mi NW 9.2 mph - N/A   Overcast
9:58 PM 32.9 °F 25.9 °F 28.6 °F 84% 30.01 in 10.0 mi WNW 8.1 mph - 0.00 in   Overcast
10:08 PM 32.0 °F 24.2 °F 28.4 °F 87% 30.00 in 10.0 mi West 9.2 mph - N/A   Mostly Cloudy
10:13 PM 32.0 °F 24.8 °F 28.4 °F 87% 30.00 in 10.0 mi WNW 8.1 mph - N/A   Scattered Clouds
10:58 PM 31.6 °F 26.0 °F 27.1 °F 83% 30.02 in 10.0 mi West 5.8 mph - N/A   Partly Cloudy
11:58 PM 31.1 °F 24.5 °F 27.1 °F 85% 30.03 in 10.0 mi West 6.9 mph - N/A   Partly Cloudy